TimeEDT,TemperatureF,Dew PointF,Humidity,Sea Level PressureIn,VisibilityMPH,Wind Direction,Wind SpeedMPH,Gust SpeedMPH,PrecipitationIn,Events,Conditions,WindDirDegrees,DateUTC
12:53 AM,66.9,53.1,61,30.07,10.0,Variable,3.5,-,N/A,,Clear,0,2013-05-13 04:53:00
1:53 AM,64.9,51.1,61,30.08,10.0,NNW,4.6,-,N/A,,Clear,330,2013-05-13 05:53:00
2:53 AM,63.0,50.0,63,30.08,10.0,NNW,5.8,-,N/A,,Clear,340,2013-05-13 06:53:00
3:53 AM,62.1,46.9,58,30.08,10.0,North,4.6,-,N/A,,Clear,350,2013-05-13 07:53:00
4:53 AM,62.1,44.1,52,30.10,10.0,Variable,4.6,-,N/A,,Partly Cloudy,0,2013-05-13 08:53:00
5:53 AM,61.0,39.9,46,30.11,10.0,North,6.9,-,N/A,,Clear,360,2013-05-13 09:53:00
6:53 AM,57.9,42.1,56,30.14,10.0,NNW,5.8,-,N/A,,Clear,340,2013-05-13 10:53:00
7:53 AM,61.0,39.9,46,30.17,10.0,North,5.8,-,N/A,,Clear,360,2013-05-13 11:53:00
8:53 AM,63.0,37.0,38,30.19,10.0,Variable,6.9,-,N/A,,Clear,0,2013-05-13 12:53:00
9:53 AM,66.9,35.1,31,30.21,10.0,North,8.1,18.4,N/A,,Clear,10,2013-05-13 13:53:00
10:53 AM,70.0,34.0,27,30.22,10.0,North,9.2,-,N/A,,Clear,10,2013-05-13 14:53:00
11:53 AM,72.0,33.1,24,30.22,10.0,NNW,8.1,18.4,N/A,,Clear,330,2013-05-13 15:53:00
12:53 PM,73.9,28.9,19,30.21,10.0,NW,10.4,20.7,N/A,,Clear,310,2013-05-13 16:53:00
1:53 PM,75.0,30.0,19,30.19,10.0,North,10.4,19.6,N/A,,Clear,350,2013-05-13 17:53:00
2:53 PM,77.0,30.2,18,30.17,10.0,NW,12.7,23.0,N/A,,Clear,320,2013-05-13 18:53:00
4:53 PM,79.0,28.9,16,30.14,10.0,NW,11.5,-,N/A,,Clear,320,2013-05-13 20:53:00
5:53 PM,78.1,26.1,15,30.14,10.0,North,11.5,-,N/A,,Clear,350,2013-05-13 21:53:00
6:53 PM,77.0,27.0,16,30.12,10.0,NNW,10.4,-,N/A,,Clear,330,2013-05-13 22:53:00
7:53 PM,75.2,30.2,19,30.14,10.0,NW,6.9,-,N/A,,Clear,320,2013-05-13 23:53:00
8:53 PM,68.0,35.1,30,30.16,10.0,WNW,5.8,-,N/A,,Clear,300,2013-05-14 00:53:00
9:53 PM,63.0,39.0,41,30.17,10.0,Calm,Calm,-,N/A,,Clear,0,2013-05-14 01:53:00
10:53 PM,57.9,39.9,51,30.19,10.0,Calm,Calm,-,N/A,,Clear,0,2013-05-14 02:53:00
11:53 PM,53.1,39.9,61,30.19,10.0,South,4.6,-,N/A,,Clear,180,2013-05-14 03:53:00